Location: Cherry Springs State Park
(41.6616°N, 77.8240°W)
Time: 07:11:52
(UTC-04:00)

Daily predictions for brighter satellites

Satellite Brightness Start Highest point End
(mag) Time Altitude Azimuth Time Altitude Azimuth Time Altitude Azimuth
Cosmos 1833 Rocket 4.3 20:54:09 10° N 20:58:11 20° NE 21:02:11 10° E
Envisat 3.8 20:56:19 10° SE 21:00:54 35° ENE 21:05:30 10° N
Cosmos 1844 Rocket 3.0 20:56:19 10° SSW 21:01:58 76° WNW 21:07:38 10° NNE
Meteor 2-6 Rocket 4.4 20:56:48 10° N 21:02:46 85° E 21:08:34 10° S
Cosmos 1825 2.9 21:00:15 10° SSE 21:03:44 35° E 21:07:14 10° NNE
FENGYUN 3A 4.1 20:58:37 10° S 21:03:59 67° WSW 21:09:21 10° NNW
deb Chang Zheng 4 4.5 21:00:36 10° NE 21:04:29 29° E 21:08:22 10° SSE
Cosmos 2278 Rocket 2.3 21:01:13 10° S 21:06:46 59° ESE 21:12:21 10° NNE
Atlas Centaur 2 3.5 21:06:32 10° SSW 21:06:47 10° SSW 21:07:02 10° SSW
ERS-1 Rocket 3.1 21:04:57 10° SSE 21:09:54 62° ENE 21:14:53 10° N
Cosmos 1420 Rocket 4.4 21:07:57 10° S 21:12:52 42° ESE 21:17:46 10° NNE
Timation 2 Rocket 4.3 21:07:30 10° NNW 21:13:18 49° ENE 21:19:04 10° SE
Cosmos 1844 3.9 21:07:46 10° SSW 21:13:33 82° WNW 21:19:23 10° NNE
ISS -2.5 21:10:54 10° WSW 21:14:06 54° NNW 21:17:19 10° NE
H-2A R/B 2.7 21:10:11 10° SE 21:14:09 39° ENE 21:18:04 10° N
Cosmos 1140 Rocket 3.8 21:10:33 10° N 21:15:34 51° ENE 21:20:35 10° SE
Okean 3 3.8 21:13:37 10° N 21:17:46 47° ENE 21:21:51 10° SSE
APEX 4.0 21:14:12 10° S 21:17:53 39° ESE 21:22:38 10° NE
Cosmos 407 Rocket 4.1 21:12:47 10° NNW 21:17:59 58° WSW 21:23:11 10° S
Cosmos 2154 Rocket 4.0 21:12:46 10° S 21:18:56 71° E 21:25:07 10° NNE
Cosmos 1939 Rocket 3.0 21:15:34 10° SSE 21:19:21 54° ENE 21:23:14 10° N
COSMOS 2487 2.5 21:18:38 10° NNW 21:22:15 80° ENE 21:25:51 10° SSE
Cosmos 1238 Rocket 2.8 21:18:54 10° N 21:22:17 55° E 21:26:20 10° SSE
Abrixas 3.5 21:20:16 10° SSW 21:22:53 26° SE 21:25:31 10° E
YAOGAN 11 4.3 21:18:55 10° S 21:23:26 80° WSW 21:28:03 10° NNW
Cosmos 2082 Rocket 3.0 21:21:10 10° N 21:26:27 38° ENE 21:30:58 13° ESE
SPOT 5 3.6 21:23:32 10° SE 21:28:30 46° ENE 21:33:37 10° N
Cosmos 1452 Rocket 4.0 21:28:53 10° SSW 21:34:07 66° WNW 21:39:24 10° NNE
Lacrosse 5 3.2 21:34:38 10° SSE 21:37:54 17° ESE 21:41:10 10° E
Cosmos 1184 Rocket 2.8 21:35:16 10° S 21:38:36 89° ESE 21:41:58 10° N
Intercosmos 25 3.4 21:38:00 13° SSE 21:40:44 38° E 21:43:42 10° NNE
H-2A R/B 3.8 21:40:11 12° E 21:43:09 18° ENE 21:46:35 10° NNE
Cosmos 2297 3.7 21:39:51 10° S 21:45:27 62° ESE 21:51:07 10° NNE
MetOp-B 4.3 21:43:40 16° SE 21:47:55 57° ENE 21:53:10 10° N
Meteor 1-14 Rocket 4.4 21:44:21 10° SSE 21:49:48 51° E 21:55:11 10° NNE
Meteor 2-13 Rocket 4.4 21:46:01 10° S 21:52:09 76° E 21:58:19 10° NNE
Okean 2 Rocket 3.0 21:48:50 10° S 21:53:15 88° E 21:57:40 10° N
Cosmos 1606 4.3 21:50:38 10° NNW 21:54:13 34° W 21:57:46 10° SSW
BREEZE-M DEB (TANK) 3.9 21:54:49 10° NW 21:56:21 18° N 21:58:15 10° NE
Cosmos 1782 Rocket 4.0 21:53:40 10° SSW 21:58:06 67° W 22:02:35 10° N
EO 1 Delta rocket 4.3 21:52:24 10° N 21:58:17 76° WNW 22:03:07 10° SSW
SPOT 1/Viking Rocket 3.9 21:55:17 21° SE 21:58:33 49° ENE 22:03:34 10° N
USA 229 DEB 3.9 21:55:01 10° NNW 22:02:08 71° NE 22:07:00 22° SE
Cosmos 1242 Rocket 2.8 21:58:32 10° NNW 22:02:13 71° W 22:04:46 19° S
USA 229 3.9 21:55:07 10° NNW 22:02:14 70° NE 22:07:06 22° SE
Cosmos 1850 Rocket 4.1 22:00:13 10° NNW 22:05:33 78° WSW 22:09:25 19° S
COS B Rocket 4.5 22:03:13 10° NNW 22:06:52 39° W 22:10:06 10° SSW
Elektron 3 4.5 22:06:25 10° NW 22:09:19 56° SW 22:11:15 27° SSE
ARGOS 3.3 22:09:06 25° SE 22:12:06 57° ENE 22:17:21 10° N
YAOGAN 6 2.4 22:10:46 32° SSE 22:12:17 87° ENE 22:15:50 10° N
Cosmos 1975 Rocket 3.9 22:08:10 10° NNW 22:12:21 49° W 22:16:10 12° SSW
Cosmos 2369 Rocket 4.1 22:14:07 12° E 22:14:07 12° E 22:15:35 10° ENE
GPS 2-05 Rocket1 4.1 22:10:25 10° WSW 22:13:38 28° S 22:13:49 27° S
Lacrosse 5 rocket 1.5 22:10:21 10° SSW 22:14:04 39° SE 22:17:38 10° ENE
OAO 3 Rocket 3.8 22:09:37 10° WSW 22:14:10 36° S 22:15:30 31° SE
Cosmos 2218 Rocket 4.0 22:08:10 11° S 22:14:22 74° E 22:20:45 10° N
PSLV R/B 3.4 22:16:18 37° SSW 22:17:14 60° WSW 22:20:11 10° NNW
SL-08 RB Rocket 4.0 22:15:38 31° SE 22:17:32 51° ENE 22:22:04 10° N
CZ-4 R/B 4.1 22:14:07 10° NNE 22:18:35 44° E 22:20:06 33° SE
Cosmos 1959 Rocket 4.4 22:16:51 12° S 22:22:36 86° E 22:28:45 10° N
CZ-4 SHROUD 3.8 22:23:32 35° SSW 22:24:30 51° W 22:27:32 10° NNW
Gbstr 26 Del rocket 3.8 22:20:12 10° NW 22:25:20 50° NNE 22:27:30 27° E
Cosmos 1536 Rocket 3.5 22:20:54 10° N 22:25:23 70° E 22:27:02 38° SSE
AVUM R/B 3.3 22:21:57 10° NNW 22:25:29 81° ENE 22:26:05 58° SE
Cosmos 1727 Rocket 3.9 22:20:58 10° N 22:27:08 70° E 22:30:27 29° SSE
Cosmos 1331 Rocket 4.0 22:27:09 29° S 22:29:36 55° ESE 22:34:38 10° NNE
Landsat 7 4.2 22:28:19 35° ESE 22:29:49 48° ENE 22:34:25 10° N
NOSS 8 (H) 4.3 22:30:35 29° SSW 22:32:13 79° ESE 22:36:00 10° NE
DELTA 2 DEB (DPAF) 4.5 22:34:27 41° ESE 22:35:31 51° ENE 22:39:52 10° N
CZ-4C R/B 3.7 22:36:09 44° ESE 22:36:45 49° ENE 22:40:48 10° N
Cosmos 1110 Rocket 3.9 22:35:43 22° S 22:39:10 78° ESE 22:44:24 10° NNE
Meteor 1-20 Rocket 4.1 22:39:25 31° S 22:42:12 74° E 22:47:43 10° NNE
Cosmos 1833 Rocket 2.8 22:37:03 10° NNW 22:42:39 69° WSW 22:45:06 34° S
Terra 2.2 22:44:32 42° ESE 22:45:31 48° ENE 22:50:07 10° N
Cosmos 1339 Rocket 4.4 22:40:59 10° N 22:47:12 83° E 22:50:00 35° SSE
USA 245 4.0 22:46:35 35° SW 22:47:39 46° W 22:51:52 10° NNW
NOSS 3-1 (C) 4.3 22:41:29 10° NNW 22:48:54 60° NE 22:53:00 31° ESE
H-2A R/B 4.4 22:47:25 10° SW 22:50:18 18° W 22:53:11 10° NW
ISS -0.3 22:48:51 10° NW 22:51:05 17° NNW 22:53:19 10° NNE
Cosmos 1025 Rocket 4.3 22:48:20 10° NNE 22:52:00 27° ENE 22:52:00 27° ENE
DMSP B5D2-2 4.2 22:47:22 10° NNE 22:52:27 50° E 22:53:13 47° SE
Cosmos 1821 Rocket 4.4 22:57:21 39° ESE 22:58:32 42° E 23:04:20 10° NNE
USA 234 3.7 22:52:37 10° ENE 22:58:06 36° ESE 22:58:06 36° ESE
Abrixas 3.7 22:55:50 10° W 22:58:22 42° NW 22:58:22 42° NW
CZ-4B R/B 4.2 23:00:13 10° N 23:04:56 48° WNW 23:08:19 17° SW
Cosmos 1300 Rocket 3.5 23:04:46 63° SSW 23:05:27 84° W 23:09:56 10° N
Cosmos 1934 Rocket 4.4 23:05:08 38° ESE 23:05:48 39° E 23:11:22 10° NNE
Spot 4 3.9 23:06:33 56° ESE 23:07:08 60° ENE 23:11:55 10° N
Cosmos 1486 Rocket 3.9 23:02:56 10° NNW 23:08:18 85° ENE 23:09:19 60° SSE
Cosmos 1354 Rocket 4.5 23:04:38 10° N 23:09:43 47° ENE 23:10:29 43° E
Cosmos 2082 Rocket 3.5 23:05:27 10° NW 23:10:25 32° WSW 23:12:50 23° SW
Okean 1 3.5 23:06:23 10° NNW 23:10:25 63° W 23:10:39 62° WSW
Cosmos 2285 Rocket 4.2 23:12:34 45° ESE 23:13:12 47° ESE 23:19:16 10° NNE
Okean 1 Rocket 3.1 23:13:53 68° SW 23:14:21 79° W 23:18:51 10° N
Cosmos 1812 3.5 23:11:18 10° NNW 23:14:58 43° W 23:15:11 43° WSW
Cosmos 1602 4.5 23:16:36 45° NE 23:16:36 45° NE 23:19:31 10° NNE
Lacrosse 5 1.9 23:15:12 10° SW 23:20:18 79° NW 23:25:25 10° NE
Genesis I 3.5 23:21:07 67° NW 23:21:07 67° NW 23:25:00 10° NNE
H-2A R/B 2.3 23:20:50 50° SSW 23:22:02 65° WSW 23:27:19 10° NNW
Meteor 2-4 Rocket 3.9 23:20:29 10° N 23:25:52 53° ENE 23:26:19 52° E
Cosmos 1302 Rocket 4.2 23:32:20 46° SW 23:33:48 67° WNW 23:39:06 10° NNE
Okean 1-7 Rocket 4.1 23:30:29 10° NNW 23:34:49 51° W 23:34:56 51° W
SL-8 R/B 4.3 23:34:08 10° WNW 23:38:51 52° NNE 23:39:35 47° NE
Cosmos 1535 Rocket 4.5 23:37:20 54° SSW 23:38:57 86° W 23:45:24 10° N
Meteor 2-14 Rocket 4.3 23:42:33 67° SSE 23:43:17 77° E 23:49:26 10° N
Cosmos 1633 4.1 23:44:52 34° N 23:44:52 34° N 23:47:05 10° N
ASTEX 1 3.7 23:38:57 10° N 23:43:51 60° W 23:44:26 56° WSW
Meteor 2-15 4.3 23:39:21 10° N 23:45:30 77° E 23:46:10 69° SE
Iridium 4 Rocket 3.7 23:42:48 10° N 23:48:46 88° W 23:49:23 73° S
Cosmos 1315 Rocket 4.1 23:51:14 35° NNE 23:51:14 35° NNE 23:53:38 10° NNE
Lacrosse 5 rocket 3.2 23:50:02 10° W 23:53:21 27° NW 23:56:35 10° NNE
